User: anonymous   Login
Location: Hepcat Sky Observatory
(29.9800°N, 95.6500°W)
Time: 22:05:40
(UTC-05:00)
Language:

Cosmos 1602 Rocket - Orbit

View from above orbital plane
View from above orbital plane
View from above satellite
View from above satellite

Ground track
Ground track

The orbit data is extracted from the following two-line orbital elements,

1 15332U 84105B   15240.06025854  .00000205  00000-0  22150-4 0  9995
2 15332 082.5324 084.1125 0021958 027.4458 084.6609 14.83122826668882
Epoch (UTC): 28 August 2015 01:26:46
Eccentricity: 0.0021958
inclination: 82.5324°
perigee height: 604 km
apogee height: 635 km
right ascension of ascending node: 84.1125°
argument of perigee: 27.4458°
revolutions per day: 14.83122826
mean anomaly at epoch: 84.6609°
orbit number at epoch: 66888

The dashed part of the orbit path shows where the satellite is in the earth's shadow,  

DLR